CYGFM07

Last updated on Sun Oct 06 2024 00:02:17 GMT+0000 (Coordinated Universal Time)

1 41890U 16078G 24279.48979825 .00028826 00000+0 91170-3 0 9996 2 41890 34.9521 303.3723 0011157 156.5042 203.6186 15.31767364433084
UTC large
Height (km)
Speed (km/s)
/
Latitude / Longitude
Inclination (degrees)
Orbital Period (minutes)
Azimuth
Elevation
Range (km)
Doppler Factor

Next 0 passes for location: London (51.5072 / 0.1276)

Sorry there are no passes over London.